Miscellaneous Local Product
Issued by NWS Hastings, NE

Home | Current Version | Previous Version | Graphics & Text | Print | Product List | Glossary On
Versions: 1 2 3 4 5 6 7 8 9 10 11 12 13 14 15 16 17 18 19 20 21 22 23 24 25 26 27 28 29 30 31 32 33 34 35 36 37 38 39 40 41 42 43 44 45 46 47 48 49 50
814
AXUS43 KGID 080502
MISGRI

GID CWA HOURLY WEATHER ROUNDUP
NATIONAL WEATHER SERVICE HASTINGS NE
1100 PM CST SUN FEB 07 2016

NOTE: "FAIR" INDICATES FEW OR NO CLOUDS BELOW 12,000 FEET WITH NO
SIGNIFICANT WEATHER AND/OR OBSTRUCTIONS TO VISIBILITY.

...SOUTH CENTRAL NEBRASKA...

CITY           SKY/WX    TMP DP  RH WIND       PRES   REMARKS
GRAND ISLAND   CLEAR     32  17  54 NW22G31   30.14R WCI  19
HASTINGS       CLEAR     31  18  58 NW21G28   30.14R WCI  18
ORD            CLEAR     31  18  58 NW22G28   30.12R WCI  18
YORK           CLEAR     32  21  64 NW30G37   30.07S WCI  18
AURORA         CLEAR     32  19  58 NW25G36   30.10R WCI  19
LEXINGTON      CLEAR     29  15  57 NW13      30.21R WCI  18
HOLDREGE       CLEAR     29  16  57 NW17      30.18S WCI  18
HEBRON         CLEAR     35  20  55 NW16G26   30.12S WCI  25

...NEBRASKA PANHANDLE...

CITY           SKY/WX    TMP DP  RH WIND       PRES   REMARKS
CHADRON        CLEAR     28  14  55 NW20G29   30.33R WCI  15
ALLIANCE       CLEAR     19  10  68 NW16      30.30R WCI   4
SCOTTSBLUFF    CLEAR     26  13  57 NW13      30.37S WCI  15
SIDNEY         CLEAR     25  12  58 NW26G33   30.33S WCI   9

...WESTERN AND NORTH CENTRAL NEBRASKA...

CITY           SKY/WX    TMP DP  RH WIND       PRES   REMARKS
VALENTINE      CLOUDY    32  17  54 NW31G40   30.19R WCI  17
AINSWORTH      MOCLDY    32  17  53 NW30G38   30.16F WCI  18
ONEILL         CLEAR     32  17  53 NW24G35   30.10S WCI  19
BROKEN BOW     MOCLDY    33  18  53 NW28G35   30.15S WCI  20
IMPERIAL       CLEAR     28  13  53 NW23G31   30.29R WCI  14
NORTH PLATTE   CLEAR     25  14  63 NW13      30.24R WCI  14
MCCOOK         CLEAR     29  17  61 NW20      30.26R WCI  16

...EASTERN NEBRASKA...

CITY           SKY/WX    TMP DP  RH WIND       PRES   REMARKS
NORFOLK        CLOUDY    34  19  54 NW35G46   30.01S WCI  19
SO SIOUX CITY  FLURRIES  30  20  66 N35G47    29.97R WCI  14
TEKAMAH        CLOUDY    31  23  72 NW29G38   30.01R WCI  16
COLUMBUS       PTCLDY    32  14  47 NW21G33   30.06R WCI  20
ALBION         PTCLDY    32  17  54 NW30G39   30.05F WCI  18
OMAHA EPPLEY   LGT SNOW  31  27  85 NW28G33   29.99S FOG     WCI  17
OFFUTT AFB     FLURRIES  32  23  69 NW33G56   29.99R SQUALL  WCI  17
MILLARD        MOCLDY    34  23  64 NW24G38   30.01R WCI  21
LINCOLN        CLOUDY    36  22  56 NW25G31   30.06R WCI  24
NEBRASKA CITY  CLOUDY    34  23  64 NW35G51   30.00F WCI  20
BEATRICE       MOCLDY    35  24  62 NW23G29   30.06R WCI  23
FALLS CITY     MOCLDY    36  27  69 NW22G30   30.01F WCI  25

...NORTHERN KANSAS...

CITY           SKY/WX    TMP DP  RH WIND       PRES   REMARKS
GOODLAND       CLOUDY    28  15  58 NW20      30.32S WCI  15
HILL CITY      CLEAR     32  18  56 NW18G25   30.27R WCI  20
NORTON         CLEAR     28  16  59 W18       30.23S WCI  16
PHILLIPSBURG   CLEAR     32  19  59 NW17      30.23R WCI  21
SMITH CENTER   CLEAR     30  19  64 NW13      30.21R WCI  20
BELOIT         CLEAR     34  19  55 NW10      30.19R WCI  26
HAYS           CLEAR     34  14  44 NW23G31   30.25R WCI  22
RUSSELL        CLEAR     32  21  64 W14       30.22R WCI  22
CONCORDIA      CLEAR     35  20  54 NW16      30.15R WCI  25
SALINA         CLEAR     38  18  44 NW18      30.19R WCI  28
TOPEKA         CLOUDY    41  21  44 NW16G26   30.05F



USA.gov is the U.S. government's official web portal to all federal, state and local government web resources and services.